Lafayette, LA

9:10 AM CDT on July 22, 2017 (GMT -0500)
Lafayette Regional

Weather History for KLFT - October, 2012

Change the Weather History Date:

Friday, October 5, 2012

  Actual Average Record
Temperature  
Mean Temperature 76 °F 74 °F  
Max Temperature 87 °F 84 °F 95 °F (1912)
Min Temperature 65 °F 63 °F 45 °F (2010)
Degree Days  
Heating Degree Days 0 0  
Month to date heating degree days 0 0  
Since 1 July heating degree days 0 1  
Cooling Degree Days 11 9  
Month to date cooling degree days 39 47  
Year to date cooling degree days 2911 2735  
Growing Degree Days 25 (Base 50)    
Moisture  
Dew Point 66 °F    
Average Humidity 72    
Maximum Humidity 100    
Minimum Humidity 44    
Precipitation  
Precipitation 0.00 in 0.14 in 3.08 in (1906)
Month to date precipitation T 0.74  
Year to date precipitation 57.65 46.08  
Snow  
Snow 0.00 in 0.00 in 0.00 in ()
Month to date snowfall 0.0 0.0  
Since 1 July snowfall 0.0 0.0  
Since 1 September snowfall 0.0 0.0  
Snow Depth 0.00 in    
Sea Level Pressure  
Sea Level Pressure 30.10 in    
Wind  
Wind Speed 1 mph (SE)    
Max Wind Speed 8 mph    
Max Gust Speed 13 mph    
Visibility 6 miles    
Events Fog    
T = Trace of Precipitation, MM = Missing Value Source: NWS Daily Summary

Daily Weather History Graph

Daily Weather History Graph

Search for Another Location

Airport or City:

Trip Planner

Search our weather history database for the weather conditions in past years. The results will help you decide how hot, cold, wet, or windy it might be!

Date:

Astronomy

Oct. 05, 2012 Rise Set
Actual Time 7:04 AM CDT 6:47 PM CDT
Civil Twilight 6:40 AM CDT 7:11 PM CDT
Nautical Twilight 6:12 AM CDT 7:39 PM CDT
Astronomical Twilight 5:44 AM CDT 8:07 PM CDT
Moon 10:31 PM CDT (10/5) 11:52 AM CDT (10/5)
Length of Visible Light 12h 31m
Length of Day
11h 43m
Waning Gibbous, 74% of the Moon is Illuminated
Oct 5
Waning Gibbous
Oct 8
Last Quarter
Oct 15
New
Oct 21
First Quarter
Oct 29
Full

Hourly Weather History & Observations

Time (CDT) Temp. Heat Index Dew Point Humidity Pressure Visibility Wind Dir Wind Speed Gust Speed Precip Events Conditions
12:53 AM 70.0 °F - 66.9 °F 90% 30.14 in 8.0 mi Calm Calm - N/A   Clear
1:53 AM 69.1 °F - 66.0 °F 90% 30.14 in 6.0 mi Calm Calm - N/A   Clear
2:53 AM 68.0 °F - 66.2 °F 94% 30.13 in 7.0 mi Calm Calm - N/A   Clear
3:53 AM 68.0 °F - 64.9 °F 90% 30.12 in 9.0 mi Calm Calm - N/A   Clear
4:33 AM 68.0 °F - 66.2 °F 94% 30.12 in 2.0 mi Calm Calm - N/A   Clear
4:45 AM 66.2 °F - 66.2 °F 100% 30.12 in 3.0 mi Calm Calm - N/A   Clear
4:53 AM 66.0 °F - 64.0 °F 93% 30.12 in 7.0 mi Calm Calm - N/A   Clear
5:25 AM 66.2 °F - 64.4 °F 94% 30.12 in 3.0 mi Calm Calm - N/A   Scattered Clouds
5:30 AM 66.2 °F - 64.4 °F 94% 30.13 in 2.5 mi Calm Calm - N/A   Mostly Cloudy
5:34 AM 66.2 °F - 64.4 °F 94% 30.13 in 0.8 mi Calm Calm - N/A   Mist
5:37 AM 66.2 °F - 64.4 °F 94% 30.13 in 0.2 mi Calm Calm - N/A Fog Fog
5:53 AM 66.0 °F - 64.9 °F 96% 30.13 in 0.2 mi Calm Calm - N/A Fog Fog
6:53 AM 64.9 °F - 64.0 °F 97% 30.14 in 0.2 mi Calm Calm - N/A Fog Fog
7:53 AM 66.9 °F - 64.9 °F 93% 30.14 in 0.2 mi Calm Calm - N/A Fog Fog
8:53 AM 68.0 °F - 66.9 °F 96% 30.15 in 0.2 mi Calm Calm - N/A Fog Fog
9:53 AM 71.1 °F - 70.0 °F 96% 30.15 in 0.2 mi Calm Calm - N/A Fog Fog
10:02 AM 71.6 °F - 71.6 °F 100% 30.15 in 0.8 mi NE 3.5 mph - N/A   Mist
10:04 AM 71.6 °F - 71.6 °F 100% 30.15 in 0.8 mi Calm Calm - N/A   Mist
10:11 AM 71.6 °F - 71.6 °F 100% 30.15 in 1.8 mi Calm Calm - N/A   Overcast
10:17 AM 73.4 °F - 71.6 °F 94% 30.15 in 3.0 mi Calm Calm - N/A   Overcast
10:36 AM 77.0 °F - 71.6 °F 83% 30.15 in 10.0 mi Calm Calm - N/A   Overcast
10:53 AM 78.1 °F - 71.1 °F 79% 30.14 in 10.0 mi Calm Calm - N/A   Scattered Clouds
11:53 AM 81.0 °F 83.0 °F 66.0 °F 60% 30.13 in 10.0 mi Calm Calm - N/A   Clear
12:53 PM 84.0 °F 85.4 °F 64.0 °F 51% 30.10 in 10.0 mi Variable 3.5 mph - N/A   Clear
1:53 PM 84.9 °F 85.9 °F 63.0 °F 48% 30.07 in 10.0 mi South 5.8 mph - N/A   Clear
2:53 PM 84.9 °F 85.0 °F 61.0 °F 44% 30.04 in 10.0 mi Calm Calm - N/A   Clear
3:53 PM 86.0 °F 86.8 °F 63.0 °F 46% 30.02 in 10.0 mi ENE 3.5 mph - N/A   Mostly Cloudy
4:53 PM 84.9 °F 86.1 °F 64.0 °F 49% 30.01 in 10.0 mi Calm Calm - N/A   Scattered Clouds
5:53 PM 82.9 °F 84.6 °F 64.9 °F 54% 30.00 in 9.0 mi SE 3.5 mph - N/A   Clear
6:53 PM 79.0 °F - 61.0 °F 54% 30.01 in 10.0 mi SW 3.5 mph - N/A   Clear
7:53 PM 73.0 °F - 68.0 °F 84% 30.01 in 10.0 mi Calm Calm - N/A   Clear
8:53 PM 72.0 °F - 66.9 °F 84% 30.02 in 10.0 mi Calm Calm - N/A   Clear
9:53 PM 71.1 °F - 66.9 °F 87% 30.03 in 10.0 mi Calm Calm - N/A   Clear
10:53 PM 70.0 °F - 66.0 °F 87% 30.03 in 10.0 mi Calm Calm - N/A   Clear
11:53 PM 71.1 °F - 64.9 °F 81% 30.02 in 10.0 mi Calm Calm - N/A   Clear